User: anonymous   Login
Location: Caribou
(46.8667°N, 68.0167°W)
Time: 11:55:36
(UTC-04:00)
Language:

SL-08 RB Rocket - Orbit

View from above orbital plane
View from above orbital plane
View from above satellite
View from above satellite

Ground track
Ground track

The orbit data is extracted from the following two-line orbital elements,

1 26387U 00033D   15210.18330959  .00000178  00000-0  39628-4 0  9997
2 26387 098.0603 277.5554 0026730 007.5491 048.5251 14.67936348806788
Epoch (UTC): 29 July 2015 04:23:57
Eccentricity: 0.0026730
inclination: 98.0603°
perigee height: 649 km
apogee height: 686 km
right ascension of ascending node: 277.5554°
argument of perigee: 7.5491°
revolutions per day: 14.67936348
mean anomaly at epoch: 48.5251°
orbit number at epoch: 80678

The dashed part of the orbit path shows where the satellite is in the earth's shadow,  

DLR